Location: IoMAS Observatory
(54.1780°N, 4.6265°W)
Time: 18:33:49
(UTC+01:00)

ISS - Pass Details

Date: 04 December 2021
Orbit: 413 x 422 km, 51.6° (Epoch: 23 January)

Event Time Altitude Azimuth Distance (km) Brightness Sun altitude
Rises 19:24:54 0° 277° (W) 2,385 1.4 -20.2°
Reaches altitude 10° 19:27:19 10° 262° (W) 1,515 0.3 -20.6°
Maximum altitude 19:29:59 22° 210° (SSW) 994 -1.5 -21.0°
Enters shadow 19:31:27 16° 175° (S) 1,175 -1.5 -21.2°
